Regional Weather Roundup
Issued by NWS New Orleans/Baton Rouge, LA

Home | Current Version | Previous Version | Graphics & Text | Print | Product List | Glossary On
Versions: 1 2 3 4 5 6 7 8 9 10 11 12 13 14 15 16 17 18 19 20 21 22 23 24 25 26 27 28 29 30 31 32 33 34 35 36 37 38 39 40 41 42 43 44 45 46 47 48 49 50
298
ASUS44 KLIX 280205
RWRLIX
NEW ORLEANS REGIONAL WEATHER ROUNDUP
NATIONAL WEATHER SERVICE NEW ORLEANS LA
800 PM CST THU NOV 27 2014

NOTE: "FAIR" INDICATES FEW OR NO CLOUDS BELOW 12,000 FEET WITH NO
      SIGNIFICANT WEATHER AND/OR OBSTRUCTIONS TO VISIBILITY.
      SKY/WX - SKY CONDITION AND SIGNIFICANT WEATHER.
      TMP - AIR TEMPERATURE.     DP    - DEWPOINT TEMPERATURE.
      RH  - RELATIVE HUMIDITY.   PRES  - PRESSURE.
      HI  - HEAT INDEX.          WCI   - WIND CHILL INDEX.

*  THESE STATIONS ARE NOT NWS OR FAA STATIONS AND ARE NOT UNDER
   NWS QUALITY CONTROL.

LAZ038-040-048-061>063-065>067-069-280300-
SOUTHEAST LOUISIANA

CITY           SKY/WX    TMP DP  RH WIND       PRES   REMARKS
N.O. AUDUBON     N/A     53  36  51 MISG        N/A
N.O. INTL ARPT CLEAR     53  33  46 NE13      30.44R
N.O. LAKEFRONT CLEAR     55  37  50 N16       30.44S
N.O. DOWNTOWN*   N/A     54  30  40 N6        30.44S
SLIDELL        CLEAR     41  35  79 CALM      30.44R
BATON ROUGE    CLEAR     44  33  65 CALM      30.45R
BOOTHVILLE     CLEAR     55  39  54 N8        30.43R
BELLE CHASSE   CLEAR     46  35  65 CALM      30.44R
BOGALUSA*        N/A     41  34  75 CALM      30.46S
NEW ROADS*       N/A     43  34  70 CALM      30.46S
GONZALES*        N/A     45  37  75 N3        30.44S
HAMMOND*       CLEAR     41  34  75 CALM      30.46S
HOUMA*         CLEAR     45  33  62 CALM      30.43S
PORT FOURCHON* CLEAR     55  41  58 N7        30.46S

$$

MSZ070-080>082-280300-
SOUTHERN MISSISSIPPI

CITY           SKY/WX    TMP DP  RH WIND       PRES   REMARKS
MCCOMB         CLEAR     45  29  53 N6        30.44S
GULFPORT       CLEAR     45  34  65 N3        30.44R
BILOXI         CLEAR     47  33  58 CALM      30.44R
PASCAGOULA     CLEAR     43  32  65 N3        30.44R
STENNIS ARPT*  CLEAR     39  32  75 MISG      30.45R

$$

COASTAL OBSERVATIONS
LAKE AND NEARSHORE STATIONS

STATION/POSITION TIME  TEMP    WIND        PRES    WAVE
                       AIR SEA DIR/SP/G            HT/PER
                 (UTC) (F)     (DEG/KT/KT) (MB)    (FT/S)
PASCAGOULA       0200   48      10/  4/  5 1030.2
WAVELAND YACHT   0200   51      20/  9/ 10 1030.0
GRAND ISLE       0200   56 59   40/  8/ 13 1030.8
SOUTHWEST PASS   0200   57                 1030.2
NEW CANAL        0200   54 55   30/ 14/ 16 1030.9
SHELL BEACH      0200   54 53   20/ 17/ 19 1030.3

OFFSHORE STATIONS

STATION/POSITION TIME  TEMP    WIND        PRES    WAVE
                       AIR SEA DIR/SP/G            HT/PER
                 (UTC) (F)     (DEG/KT/KT) (MB)    (FT/S)
64 S DAUPHIN ISL 0141   58 71   10/ 19/ 23 1030.2    4/ 5

$$




USA.gov is the U.S. government's official web portal to all federal, state and local government web resources and services.